Location: Glens Falls
(43.3090°N, 73.6440°W)
Time: 22:42:36
(UTC-04:00)

Daily predictions for brighter satellites

Satellite Brightness Start Highest point End
(mag) Time Altitude Azimuth Time Altitude Azimuth Time Altitude Azimuth
Cosmos 1378 3.3 19:13:10 10° N 19:16:53 52° E 19:20:34 10° SSE
Envisat 4.5 19:18:51 10° ESE 19:22:11 18° ENE 19:25:31 10° NNE
Geosat 4.0 19:17:25 10° SE 19:22:23 66° ENE 19:27:24 10° NNW
BREEZE M DEB (TANK) 3.5 19:12:24 10° WSW 19:22:26 63° NNW 19:25:35 10° ENE
ALOS 2.2 19:20:05 10° SSE 19:24:45 80° ENE 19:29:26 10° N
ATLAS 2AS CENTAUR R/B 4.4 19:19:15 10° NNW 19:25:37 24° NNE 19:31:45 10° ENE
USA 81 4.1 19:21:25 10° N 19:26:41 63° E 19:31:55 10° SSE
Cosmos 1271 Rocket 3.5 19:23:04 10° SSW 19:26:47 57° WNW 19:30:35 10° N
Cosmos 2150 Rocket 4.2 19:22:25 10° NNW 19:27:47 85° WSW 19:33:12 10° SSE
COSMO-SKYMED 1 3.5 19:26:05 10° N 19:30:20 54° WNW 19:34:33 10° SSW
Cosmos 2181 Rocket 4.1 19:29:11 10° N 19:35:25 84° W 19:41:32 10° S
NOSS 3-1 (A) 4.1 19:28:36 10° NNW 19:36:08 69° NE 19:44:31 10° SE
Cosmos 1758 Rocket 4.1 19:32:06 10° NNW 19:36:34 67° W 19:41:01 10° S
Cosmos 841 Rocket 3.4 19:33:36 10° S 19:38:42 71° ESE 19:43:50 10° NNE
Cosmos 1340 Rocket 3.9 19:36:38 10° NNW 19:40:34 50° W 19:44:32 10° S
Cosmos 1937 Rocket 4.2 19:36:42 10° NNW 19:41:55 57° WSW 19:47:02 10° S
Cosmos 1726 Rocket 4.0 19:37:46 10° SSW 19:42:06 67° W 19:46:26 10° N
FREGAT/IRIS 2.5 19:40:01 10° SSE 19:43:02 83° ENE 19:46:04 10° N
Cosmos 389 Rocket 4.1 19:40:10 10° SW 19:43:27 38° WNW 19:46:44 10° N
Cosmos 1805 4.3 19:41:20 10° SE 19:44:29 24° E 19:47:39 10° NE
NOSS 3-1 (C) 4.2 19:37:11 10° NW 19:44:48 87° SW 19:53:16 10° SSE
Cosmos 2084 3.7 19:44:21 10° SW 19:48:23 65° NW 19:52:16 10° NNE
Cosmos 2074 Rocket 3.9 19:43:44 10° S 19:49:51 66° E 19:56:00 10° NNE
CZ-2D R/B 3.8 19:47:59 11° SE 19:51:19 38° ENE 19:54:52 10° N
Cosmos 1943 Rocket 4.0 19:48:56 10° NW 19:53:52 33° WSW 19:58:48 10° SSW
Resurs 1-3 4.3 19:50:43 14° SE 19:53:53 34° ENE 19:57:51 10° N
Cosmos 540 Rocket 3.6 19:50:46 10° S 19:55:40 49° ESE 20:00:36 10° NNE
Cosmos 1763 Rocket 4.1 19:53:00 10° SSW 19:58:02 60° WNW 20:03:11 10° NNE
Meteor 1-24 Rocket 3.8 19:54:11 10° N 20:00:12 81° E 20:05:59 10° SSE
HJ-1C 3.3 19:57:13 10° SSE 20:00:33 86° E 20:03:56 10° N
Cosmos 2228 3.9 20:03:33 10° SSW 20:07:48 53° W 20:12:04 10° N
Cosmos 1697 Rocket 4.3 20:07:19 10° N 20:11:01 17° NE 20:12:25 16° ENE
Cosmos 1980 Rocket 4.2 20:10:06 10° NNE 20:12:00 12° NE 20:13:21 11° NE
SJ-6B 3.3 20:09:20 10° S 20:13:19 62° W 20:17:13 10° NNW
Cosmos 1953 3.0 20:17:35 33° E 20:17:35 33° E 20:20:55 10° NNE
Resurs 01 Rocket 1.6 20:14:19 18° SSE 20:17:29 64° ENE 20:21:52 10° N
Nadezhda 3 Rocket 4.0 20:11:18 10° N 20:17:31 58° ENE 20:23:05 13° SSE
Cosmos 1356 Rocket 4.5 20:15:28 10° NNW 20:19:38 49° W 20:23:47 10° S
GP-B 3.1 20:15:40 10° N 20:20:03 57° E 20:23:34 15° SSE
Cosmos 1812 Rocket 3.5 20:17:10 10° S 20:21:34 69° E 20:26:02 10° NNE
Meteor 2-8 Rocket 4.4 20:15:35 10° N 20:21:46 87° E 20:27:51 10° S
H-2A R/B 4.2 20:21:53 10° SSW 20:25:21 37° W 20:28:52 10° NNW
Cosmos 2184 Rocket 4.4 20:21:23 10° SSW 20:27:39 68° W 20:34:01 10° N
Spot 2 Rocket 3.4 20:24:52 21° SSE 20:28:16 72° ENE 20:33:18 10° N
BREEZE-M DEB (TANK) 3.1 20:31:40 10° NW 20:32:50 23° NNW 20:32:50 23° NNW
USA 186 3.6 20:36:34 17° NNW 20:36:34 17° NNW 20:37:15 10° NNW
Meteor 2-19 Rocket 4.3 20:29:09 10° S 20:35:11 87° E 20:41:17 10° N
Cosmos 292 Rocket 3.8 20:34:47 10° S 20:39:31 57° ESE 20:44:18 10° NNE
Cosmos 1295 Rocket 4.5 20:37:06 18° SSE 20:41:27 53° E 20:47:21 10° NNE
Milstar 3 Cent rocket 3.9 20:40:26 10° SSW 20:42:10 13° S 20:42:10 13° S
YAOGAN 6 4.0 20:46:01 27° NNE 20:46:01 27° NNE 20:47:57 10° N
COSMOS 2406 3.9 20:40:20 10° SW 20:45:57 57° WNW 20:51:37 10° NNE
Cosmos 783 Rocket 4.3 20:41:29 10° SSW 20:46:40 76° ESE 20:51:52 10° NNE
Okean 3 Rocket 3.6 20:42:37 10° N 20:46:57 60° ENE 20:46:57 60° ENE
MOS 1-B Rocket 3.9 20:43:09 15° SSE 20:48:19 82° WSW 20:54:00 10° NNW
Helios 1A 4.3 20:50:31 27° NNE 20:50:31 27° NNE 20:52:54 10° N
ISS -1.6 20:45:58 10° SW 20:47:02 19° SW 20:47:02 19° SW
ERS-1 Rocket 4.2 20:52:01 26° NE 20:52:01 26° NE 20:55:15 10° N
SL-8 Rocket 4.1 20:50:55 46° E 20:51:12 46° E 20:57:02 10° NNE
Cosmos 1125 Rocket 4.3 20:48:11 10° NNW 20:53:18 50° WSW 20:57:04 18° S
Cosmos 1674 3.1 20:54:53 10° NNW 20:58:04 59° NW 20:58:04 59° NW
Cosmos 2369 3.7 20:53:08 10° NNW 20:58:45 60° ENE 20:59:14 58° E
BREEZE-M DEB (TANK) 2.8 20:49:09 10° WSW 20:58:47 82° SSE 20:59:22 67° E
Meteor 1-21 Rocket 4.2 20:54:44 10° N 21:00:31 87° W 21:02:33 42° S
Envisat 3.3 20:57:59 27° S 21:00:41 63° W 21:05:45 10° NNW
Cosmos 1758 3.8 20:59:36 32° SW 21:01:15 59° W 21:05:13 10° N
Meteor 2-15 4.3 20:59:15 10° N 21:05:18 66° E 21:05:56 61° ESE
Cosmos 1939 Rocket 3.7 21:14:51 47° NW 21:14:51 47° NW 21:18:00 10° NNW
Meteor 2-21 Rocket 4.5 21:15:52 61° ENE 21:15:52 61° ENE 21:21:23 10° NNE
H-2A R/B 3.8 21:18:39 19° NNE 21:18:39 19° NNE 21:20:37 10° N
SJ-11-01 4.5 21:16:34 66° WSW 21:16:43 67° WSW 21:21:26 10° NNW
ATLAS 2AS CENTAUR R/B 2.9 21:10:17 10° NNW 21:18:18 65° NE 21:19:38 57° E
Cosmos 2278 3.8 21:27:42 10° NNW 21:33:05 75° WNW 21:33:05 75° WNW
Cosmos 2322 Rocket 4.2 21:42:12 10° N 21:44:25 17° NNE 21:44:25 17° NNE
Resurs 01 Rocket 4.5 21:52:27 10° WSW 21:54:22 13° W 21:56:19 10° WNW
Cosmos 1697 Rocket 3.4 21:50:05 10° NNW 21:54:09 49° NNW 21:54:09 49° NNW
Cosmos 1656 4.4 21:51:04 10° NNW 21:55:33 50° WNW 21:55:33 50° WNW
Cosmos 1980 Rocket 3.4 21:51:41 10° NNW 21:55:07 36° N 21:55:07 36° N
FALCON 9 R/B 4.0 21:53:42 10° WSW 21:55:15 22° SW 21:55:15 22° SW
SL-16 R/B 4.2 22:18:58 10° N 22:21:08 21° N 22:21:08 21° N
CZ-3A R/B 4.2 22:31:52 10° WNW 22:48:58 63° NNE 22:48:58 63° NNE
ATLAS 2AS CENTAUR R/B 4.4 23:02:05 10° NW 23:07:05 29° W 23:07:05 29° W
